Regional Weather Roundup
Issued by NWS State College, PA

Home | Current Version | Previous Version | Text Only | Print | Product List | Glossary On
Versions: 1 2 3 4 5 6 7 8 9 10 11 12 13 14 15 16 17 18 19 20 21 22 23 24 25 26 27 28 29 30 31 32 33 34 35 36 37 38 39 40 41 42 43 44 45 46 47 48 49 50
000
ASUS41 KCTP 202110
RWRCTP

REGIONAL WEATHER ROUNDUP
NATIONAL WEATHER SERVICE STATE COLLEGE PA
400 PM EST MON FEB 20 2017

Note: "fair" indicates few or no clouds below 12,000 feet with no
significant weather and/or obstructions to visibility.

* = STATION THAT DOES NOT REPORT PRECIPITATION /E.G. RAIN...SNOW...ETC/
    THUNDER OR FOG.

PAZ002>004-007>009-013>016-020>023-029>032-202200-
WESTERN PENNSYLVANIA

CITY           SKY/WX    TMP DP  RH WIND       PRES   REMARKS
ERIE           SUNNY     43  29  57 NE12      30.28S
MEADVILLE      SUNNY     54  30  40 NE3       30.22F
FRANKLIN*      SUNNY     55  28  35 E6        30.23F
NEW CASTLE     FAIR      59  29  31 VRB3      30.22F
BEAVER COUNTY  SUNNY     61  30  31 CALM      30.21F
BUTLER*        SUNNY     57  28  33 S3        30.23S
PITTSBURGH INT PTSUNNY   61  31  32 N3        30.21S
PITTSBURGH     SUNNY     59  31  34 CALM      30.20F
INDIANA*       SUNNY     59  28  31 CALM      30.24S
LATROBE        SUNNY     59  32  36 VRB3      30.22F
WASHINGTON CO* MOSUNNY   57  37  47 CALM      30.23S
$$

PAZ004>006-010>012-017>019-024>028-033>037-041-042-045-046-049>053-202200-
CENTRAL PENNSYLVANIA

CITY           SKY/WX    TMP DP  RH WIND       PRES   REMARKS
BRADFORD       CLOUDY    50  23  34 NE6       30.24S
DUBOIS         SUNNY     56  28  34 E3        30.22S
CLEARFIELD       N/A    N/A N/A N/A MISG      30.22S
JOHNSTOWN      SUNNY     56  26  31 N6        30.20S
ALTOONA        SUNNY     59  31  34 NE8       30.21S
STATE COLLEGE  SUNNY     55  28  35 CALM      30.22F
WILLIAMSPORT   SUNNY     55  18  23 N9        30.25F
SELINSGROVE    SUNNY     53  27  36 NE10      30.25F
FT INDIANTOWN  SUNNY     55  25  32 NW8       30.24R
CAPITAL CITY   SUNNY     59  25  27 NE9       30.23S
HARRISBURG     PTSUNNY   58  26  29 N10       30.23R
YORK           SUNNY     58  31  35 NE9       30.22R
$$

PAZ038>040-043-044-047-048-054-055-060>062-067>071-202200-
EASTERN PENNSYLVANIA

CITY           SKY/WX    TMP DP  RH WIND       PRES   REMARKS
SCRANTON       SUNNY     48  16  27 N9        30.25R
MOUNT POCONO   SUNNY     43  13  29 NW14      30.20R
ALLENTOWN      SUNNY     54  18  24 N16       30.23R
QUAKERTOWN*    CLEAR     54  18  24 N12       30.23R
READING        SUNNY     57  25  29 NW10      30.21S
LANCASTER      SUNNY     57  29  34 N10       30.22S
COATESVILLE    CLEAR     55  28  35 NW12      30.22S
POTTSTOWN      SUNNY     55  18  23 N10       30.23R
BLUE BELL      SUNNY     54  25  32 N6        30.21R
DOYLESTOWN     SUNNY     57  20  23 NW9G21    30.20R
WILLOW GROVE   NOT AVBL
NORTH PHILA    SUNNY     57  23  26 NW12      30.22R
PHILADELPHIA   MOSUNNY   57  22  25 NW12G23   30.21S
$$



USA.gov is the U.S. government's official web portal to all federal, state and local government web resources and services.